Time,TemperatureF,DewpointF,PressureIn,WindDirection,WindDirectionDegrees,WindSpeedMPH,WindSpeedGustMPH,Humidity,HourlyPrecipIn,Conditions,Clouds,dailyrainin,SoftwareType,DateUTC
2013-03-20 00:30:00,23.8,17.3,28.98,West,270,2.2,2.2,76,0.00,,,0.00,WUHU216HW,2013-03-20 04:30:00,
2013-03-20 00:35:00,23.8,17.3,28.98,West,270,2.2,2.2,76,0.00,,,0.00,WUHU216HW,2013-03-20 04:35:00,
2013-03-20 01:00:00,23.8,17.3,28.98,West,270,2.7,2.7,76,0.00,,,0.00,WUHU216HW,2013-03-20 05:00:00,
2013-03-20 01:05:00,23.8,17.3,28.98,West,270,2.7,2.7,76,0.00,,,0.00,WUHU216HW,2013-03-20 05:05:00,
2013-03-20 01:30:00,23.6,17.1,28.97,West,270,3.4,3.4,76,0.00,,,0.00,WUHU216HW,2013-03-20 05:30:00,
2013-03-20 01:35:00,23.6,17.1,28.97,West,270,3.4,3.4,76,0.00,,,0.00,WUHU216HW,2013-03-20 05:35:00,
2013-03-20 02:00:00,23.4,16.9,28.97,West,270,2.9,2.9,76,0.00,,,0.00,WUHU216HW,2013-03-20 06:00:00,
2013-03-20 02:05:00,23.4,16.9,28.97,West,270,2.9,2.9,76,0.00,,,0.00,WUHU216HW,2013-03-20 06:05:00,
2013-03-20 02:30:00,23.4,17.3,28.97,West,270,0.9,0.9,77,0.00,,,0.00,WUHU216HW,2013-03-20 06:30:00,
2013-03-20 02:35:00,23.4,17.3,28.97,West,270,0.9,0.9,77,0.00,,,0.00,WUHU216HW,2013-03-20 06:35:00,
2013-03-20 09:30:00,24.1,16.0,28.97,West,270,1.3,1.3,71,0.00,,,0.00,WUHU216HW,2013-03-20 13:30:00,
2013-03-20 09:35:00,24.1,16.0,28.97,West,270,1.3,1.3,71,0.00,,,0.00,WUHU216HW,2013-03-20 13:35:00,
2013-03-20 10:00:00,24.5,16.8,28.97,West,270,0.7,0.7,72,0.00,,,0.00,WUHU216HW,2013-03-20 14:00:00,
2013-03-20 10:05:00,24.5,16.8,28.97,West,270,0.7,0.7,72,0.00,,,0.00,WUHU216HW,2013-03-20 14:05:00,
2013-03-20 10:30:00,25.4,16.2,28.97,West,270,1.6,1.6,68,0.00,,,0.00,WUHU216HW,2013-03-20 14:30:00,
2013-03-20 10:35:00,25.4,16.2,28.97,West,270,1.6,1.6,68,0.00,,,0.00,WUHU216HW,2013-03-20 14:35:00,
2013-03-20 11:00:00,26.6,13.8,28.96,West,270,2.9,2.9,58,0.00,,,0.00,WUHU216HW,2013-03-20 15:00:00,
2013-03-20 11:05:00,26.6,13.8,28.96,West,270,2.9,2.9,58,0.00,,,0.00,WUHU216HW,2013-03-20 15:05:00,
2013-03-20 11:30:00,26.3,13.9,28.96,West,270,4.0,4.0,59,0.00,,,0.00,WUHU216HW,2013-03-20 15:30:00,
2013-03-20 11:35:00,26.3,13.9,28.96,West,270,4.0,4.0,59,0.00,,,0.00,WUHU216HW,2013-03-20 15:35:00,
2013-03-20 12:00:00,27.4,15.7,28.96,West,270,2.5,2.5,61,0.00,,,0.00,WUHU216HW,2013-03-20 16:00:00,
2013-03-20 12:05:00,27.4,15.7,28.96,West,270,2.5,2.5,61,0.00,,,0.00,WUHU216HW,2013-03-20 16:05:00,
2013-03-20 12:30:00,27.2,15.8,28.96,WSW,248,4.0,4.0,62,0.00,,,0.00,WUHU216HW,2013-03-20 16:30:00,
2013-03-20 12:35:00,27.2,15.8,28.96,WSW,248,4.0,4.0,62,0.00,,,0.00,WUHU216HW,2013-03-20 16:35:00,
2013-03-20 13:00:00,27.9,16.6,28.96,WSW,248,4.7,4.7,62,0.00,,,0.00,WUHU216HW,2013-03-20 17:00:00,
2013-03-20 13:05:00,27.9,16.6,28.96,WSW,248,4.7,4.7,62,0.00,,,0.00,WUHU216HW,2013-03-20 17:05:00,
2013-03-20 13:30:00,27.7,17.1,28.96,WSW,248,4.0,4.0,64,0.00,,,0.00,WUHU216HW,2013-03-20 17:30:00,
2013-03-20 13:35:00,27.7,17.1,28.96,WSW,248,4.0,4.0,64,0.00,,,0.00,WUHU216HW,2013-03-20 17:35:00,
2013-03-20 14:00:00,29.3,16.4,28.96,WSW,248,2.7,2.7,58,0.00,,,0.00,WUHU216HW,2013-03-20 18:00:00,
2013-03-20 14:05:00,29.3,16.4,28.96,WSW,248,2.7,2.7,58,0.00,,,0.00,WUHU216HW,2013-03-20 18:05:00,
2013-03-20 14:30:00,29.5,16.9,28.95,SW,225,3.4,3.4,59,0.00,,,0.00,WUHU216HW,2013-03-20 18:30:00,
2013-03-20 14:35:00,29.5,16.9,28.95,SW,225,3.4,3.4,59,0.00,,,0.00,WUHU216HW,2013-03-20 18:35:00,
2013-03-20 15:00:00,28.3,16.6,28.95,WSW,248,5.6,5.6,61,0.00,,,0.00,WUHU216HW,2013-03-20 19:00:00,
2013-03-20 15:05:00,28.3,16.6,28.95,WSW,248,5.6,5.6,61,0.00,,,0.00,WUHU216HW,2013-03-20 19:05:00,
2013-03-20 15:30:00,28.4,14.8,28.94,WSW,248,9.2,9.2,56,0.00,,,0.00,WUHU216HW,2013-03-20 19:30:00,
2013-03-20 15:35:00,28.4,14.8,28.94,WSW,248,9.2,9.2,56,0.00,,,0.00,WUHU216HW,2013-03-20 19:35:00,
2013-03-20 16:00:00,28.1,14.0,28.94,WSW,248,1.8,1.8,55,0.00,,,0.00,WUHU216HW,2013-03-20 20:00:00,
2013-03-20 16:05:00,28.1,14.0,28.94,WSW,248,1.8,1.8,55,0.00,,,0.00,WUHU216HW,2013-03-20 20:05:00,
2013-03-20 16:30:00,29.9,15.6,28.94,WSW,248,6.5,6.5,55,0.00,,,0.00,WUHU216HW,2013-03-20 20:30:00,
2013-03-20 16:35:00,29.9,15.6,28.94,WSW,248,6.5,6.5,55,0.00,,,0.00,WUHU216HW,2013-03-20 20:35:00,
2013-03-20 17:00:00,25.9,14.7,28.95,West,270,5.6,5.6,62,0.00,,,0.00,WUHU216HW,2013-03-20 21:00:00,
2013-03-20 17:05:00,25.9,14.7,28.95,West,270,5.6,5.6,62,0.00,,,0.00,WUHU216HW,2013-03-20 21:05:00,
2013-03-20 17:30:00,25.4,15.6,28.96,West,270,8.5,8.5,66,0.00,,,0.00,WUHU216HW,2013-03-20 21:30:00,
2013-03-20 17:35:00,25.4,15.6,28.96,West,270,8.5,8.5,66,0.00,,,0.00,WUHU216HW,2013-03-20 21:35:00,
2013-03-20 18:00:00,25.0,14.5,28.96,West,270,4.0,4.0,64,0.00,,,0.00,WUHU216HW,2013-03-20 22:00:00,
2013-03-20 18:05:00,25.0,14.5,28.96,West,270,4.0,4.0,64,0.00,,,0.00,WUHU216HW,2013-03-20 22:05:00,
2013-03-20 18:30:00,23.6,12.8,28.96,West,270,1.8,1.8,63,0.00,,,0.00,WUHU216HW,2013-03-20 22:30:00,
2013-03-20 18:35:00,23.6,12.8,28.96,West,270,1.8,1.8,63,0.00,,,0.00,WUHU216HW,2013-03-20 22:35:00,
2013-03-20 19:00:00,23.0,12.2,28.97,West,270,3.1,3.1,63,0.00,,,0.00,WUHU216HW,2013-03-20 23:00:00,
2013-03-20 19:05:00,23.0,12.2,28.97,West,270,3.1,3.1,63,0.00,,,0.00,WUHU216HW,2013-03-20 23:05:00,
2013-03-20 20:30:00,20.9,11.9,28.98,West,270,2.5,2.5,68,0.00,,,0.00,WUHU216HW,2013-03-21 00:30:00,
2013-03-20 20:35:00,20.9,11.9,28.98,West,270,2.5,2.5,68,0.00,,,0.00,WUHU216HW,2013-03-21 00:35:00,
2013-03-20 21:30:00,19.1,11.4,28.99,West,270,4.9,4.9,72,0.00,,,0.00,WUHU216HW,2013-03-21 01:30:00,
2013-03-20 21:35:00,19.1,11.4,28.99,West,270,4.9,4.9,72,0.00,,,0.00,WUHU216HW,2013-03-21 01:35:00,
2013-03-20 22:00:00,18.4,11.1,28.99,West,270,4.0,4.0,73,0.00,,,0.00,WUHU216HW,2013-03-21 02:00:00,
2013-03-20 22:05:00,18.4,11.1,28.99,West,270,4.0,4.0,73,0.00,,,0.00,WUHU216HW,2013-03-21 02:05:00,
2013-03-20 22:30:00,17.8,11.2,28.98,West,270,2.0,2.0,75,0.00,,,0.00,WUHU216HW,2013-03-21 02:30:00,
2013-03-20 22:35:00,17.8,11.2,28.98,West,270,2.0,2.0,75,0.00,,,0.00,WUHU216HW,2013-03-21 02:35:00,
2013-03-20 23:00:00,17.6,11.3,28.98,West,270,1.8,1.8,76,0.00,,,0.00,WUHU216HW,2013-03-21 03:00:00,
2013-03-20 23:05:00,17.6,11.3,28.98,West,270,1.8,1.8,76,0.00,,,0.00,WUHU216HW,2013-03-21 03:05:00,
2013-03-20 23:30:00,17.3,10.9,28.98,West,270,1.6,1.6,76,0.00,,,0.00,WUHU216HW,2013-03-21 03:30:00,
2013-03-20 23:35:00,17.3,10.9,28.98,West,270,1.6,1.6,76,0.00,,,0.00,WUHU216HW,2013-03-21 03:35:00,